Change the Weather History Date:

Tuesday, February 11, 2014

  Actual Average Record
Temperature  
Mean Temperature 9 °F 27 °F  
Max Temperature 17 °F 34 °F 70 °F (1999)
Min Temperature 1 °F 20 °F -10 °F (1885)
Degree Days  
Heating Degree Days 56 38  
Month to date heating degree days 540 424  
Since 1 July heating degree days 4518 3944  
Cooling Degree Days 0 0  
Month to date cooling degree days 0 0  
Year to date cooling degree days 0 0  
Moisture  
Dew Point 2 °F    
Average Humidity 72    
Maximum Humidity 86    
Minimum Humidity 58    
Precipitation  
Precipitation T in 0.07 in 0.82 in (1876)
Month to date precipitation 1.47 0.74  
Year to date precipitation 4.39 2.70  
Snow  
Snow T in 0.40 in 7.30 in (1988)
Month to date snowfall 15.0 4.0  
Since 1 July snowfall 70.8 27.7  
Snow Depth 17.00 in    
Sea Level Pressure  
Sea Level Pressure 30.49 in    
Wind  
Wind Speed 5 mph (West)    
Max Wind Speed 10 mph    
Max Gust Speed 13 mph    
Visibility 9 miles    
Events Snow    
T = Trace of Precipitation, MM = Missing Value Source: NWS Daily Summary

Daily Weather History Graph

Daily Weather History Graph

Search for Another Location

Airport or City:

Trip Planner

Search our weather history database for the weather conditions in past years. The results will help you decide how hot, cold, wet, or windy it might be!

Date:

Astronomy

Feb. 11, 2014 Rise Set
Actual Time 7:34 AM EST 6:00 PM EST
Civil Twilight 7:05 AM EST 6:29 PM EST
Nautical Twilight 6:32 AM EST 7:02 PM EST
Astronomical Twilight 6:00 AM EST 7:35 PM EST
Moon 3:18 PM EST (2/11) 5:12 AM EST (2/11)
Length of Visible Light 11h 23m
Length of Day
10h 25m
Waxing Gibbous, 90% of the Moon is Illuminated
Feb 11
Waxing Gibbous
Feb 14
Full
Feb 22
Last Quarter
Mar 1
New
Mar 8
First Quarter

Hourly Weather History & Observations

Time (EST) Temp. Windchill Dew Point Humidity Pressure Visibility Wind Dir Wind Speed Gust Speed Precip Events Conditions
12:53 AM 12.0 °F 2.7 °F 3.0 °F 67% 30.41 in 8.0 mi West 5.8 mph - 0.00 in Snow Light Snow
1:53 AM 10.0 °F -0.9 °F 1.9 °F 70% 30.42 in 9.0 mi West 6.9 mph - 0.00 in Snow Light Snow
2:53 AM 10.0 °F -1.9 °F 1.9 °F 70% 30.43 in 9.0 mi West 8.1 mph - 0.00 in Snow Light Snow
3:53 AM 10.0 °F -2.9 °F 1.9 °F 70% 30.42 in 9.0 mi West 9.2 mph - 0.00 in Snow Light Snow
4:53 AM 10.0 °F -1.9 °F 1.9 °F 70% 30.43 in 9.0 mi West 8.1 mph - 0.00 in Snow Light Snow
5:53 AM 10.0 °F -1.9 °F 1.9 °F 70% 30.45 in 10.0 mi West 8.1 mph - 0.00 in Snow Light Snow
6:53 AM 10.0 °F -1.9 °F 1.9 °F 70% 30.46 in 10.0 mi WNW 8.1 mph - 0.00 in   Overcast
7:53 AM 10.0 °F -3.7 °F 1.0 °F 67% 30.49 in 10.0 mi WNW 10.4 mph - N/A   Overcast
8:53 AM 10.0 °F -1.9 °F 1.0 °F 67% 30.51 in 10.0 mi WNW 8.1 mph - N/A   Overcast
9:53 AM 10.9 °F 0.2 °F 1.0 °F 64% 30.52 in 9.0 mi NW 6.9 mph - N/A   Overcast
10:53 AM 12.9 °F 3.8 °F 3.0 °F 65% 30.54 in 7.0 mi NW 5.8 mph - 0.00 in   Overcast
11:53 AM 14.0 °F 6.5 °F 1.9 °F 59% 30.53 in 9.0 mi NW 4.6 mph - 0.00 in   Mostly Cloudy
12:53 PM 14.0 °F - 1.9 °F 59% 30.53 in 10.0 mi Calm Calm - N/A   Overcast
1:53 PM 14.0 °F - 1.9 °F 59% 30.51 in 10.0 mi Calm Calm - N/A   Mostly Cloudy
2:53 PM 14.0 °F - 1.0 °F 56% 30.51 in 10.0 mi Calm Calm - N/A   Mostly Cloudy
3:53 PM 14.0 °F - 1.0 °F 56% 30.51 in 10.0 mi Calm Calm - N/A   Scattered Clouds
4:53 PM 14.0 °F 3.9 °F 5.0 °F 67% 30.51 in 10.0 mi South 6.9 mph - N/A   Scattered Clouds
5:53 PM 10.9 °F -0.8 °F 3.0 °F 70% 30.52 in 10.0 mi SSE 8.1 mph - N/A   Scattered Clouds
6:53 PM 10.0 °F -0.9 °F 3.0 °F 73% 30.53 in 10.0 mi SSE 6.9 mph - N/A   Scattered Clouds
7:53 PM 8.1 °F -0.5 °F 1.9 °F 76% 30.53 in 10.0 mi SE 4.6 mph - N/A   Partly Cloudy
8:53 PM 7.0 °F -3.3 °F 1.9 °F 80% 30.52 in 10.0 mi SE 5.8 mph - N/A   Clear
9:53 PM 3.9 °F - -0.0 °F 84% 30.51 in 10.0 mi Calm Calm - N/A   Clear
10:53 PM 3.0 °F -4.4 °F -2.0 °F 80% 30.52 in 10.0 mi SSE 3.5 mph - N/A   Clear
11:53 PM 1.9 °F - -2.0 °F 83% 30.51 in 8.0 mi Calm Calm - N/A   Clear